Regional Weather Roundup
Issued by NWS

Home | Current Version | Previous Version | Text Only | Print | Product List | Glossary On
Versions: 1 2 3 4 5 6 7 8 9 10 11 12 13 14 15 16 17 18 19 20 21 22 23 24 25 26 27 28 29 30 31 32 33 34 35 36 37 38 39 40 41 42 43 44 45 46 47 48 49 50
769
ASUS43 KIND 231609
RWRIN

WEATHER ROUNDUP FOR INDIANA
NATIONAL WEATHER SERVICE INDIANAPOLIS IN
1100 AM EST MON JAN 23 2017

NOTE: "FAIR" INDICATES FEW OR NO CLOUDS BELOW 12,000 FEET WITH NO
SIGNIFICANT WEATHER AND/OR OBSTRUCTIONS TO VISIBILITY.

* - STATION DOES NOT REPORT WEATHER SUCH AS PRECIPITATION OR FOG.

+ - STATION NOT QUALITY CONTROLLED BY THE NATIONAL WEATHER SERVICE.
    USE DATA WITH CAUTION...ESPECIALLY DEWPOINT AND RELATIVE
    HUMIDITY OBSERVATIONS.

INZ001>003-010>013-019-020-231700-
NORTHWEST INDIANA

CITY           SKY/WX    TMP DP  RH WIND       PRES   REMARKS
GARY /AIRPORT/ CLOUDY    39  36  87 N10       29.78R
KNOX *+        CLOUDY    37  30  75 N12       29.73R
LA PORTE +     CLOUDY    37  37  98 N12G17    29.75R FOG
MICHIGAN CITY+ CLOUDY    37  37 100 N12       29.76R
MONTICELLO +   CLOUDY    39  37  93 NW14      29.72R FOG
RENSSELAER +     N/A     37  37 100 N7        29.75S
VALPARAISO     CLOUDY    39  37  92 N9        29.76R

$$

LMZ046-743>745-231700-
SOUTHERN LAKE MICHIGAN

STATION/POSITION TIME  TEMP    WIND        PRES    WAVE
                       AIR SEA DIR/SP/G            HT
                 (UTC) (F)     (DEG/KT/KT) (MB)    (FT)
BURNS HARBOR     1540   36     350/ 12/ 15 1008.8R
MICHIGAN CITY    1540   37     330/ 16/ 17   N/A

$$

INZ004-005-014>016-021>024-231700-
NORTH CENTRAL INDIANA

CITY           SKY/WX    TMP DP  RH WIND       PRES   REMARKS
ELKHART        FOG       39  39 100 NW9       29.71R VSB 1
GOSHEN         CLOUDY    42  39  89 N10       29.69R FOG
LOGANSPORT +   CLOUDY    39  37  93 N13G18    29.70R FOG
PERU/GRISSOM   CLOUDY    42  42 100 NW10      29.67R
ROCHESTER +    CLOUDY    43  43 100 N12       29.70R FOG
SOUTH BEND     CLOUDY    39  38  96 NW12      29.73R FOG
WARSAW +       FOG       41  41 100 N8        29.68R VSB 3/4

$$

INZ006>009-017-018-025>027-231700-
NORTHEAST INDIANA

CITY           SKY/WX    TMP DP  RH WIND       PRES   REMARKS
ANGOLA *+      CLOUDY    39  28  65 N3        29.67R
AUBURN +       CLOUDY    43  41  93 N7        29.67R FOG
FORT WAYNE     DRIZZLE   45  42  89 N12       29.66R FOG
HUNTINGTON +   CLOUDY    44  42  95 N9        29.66R
KENDALLVILLE + FOG       42  42 100 N7        29.67R VSB 1

$$

INZ028-029-035-036-043>045-051>053-231700-
WEST CENTRAL INDIANA

CITY           SKY/WX    TMP DP  RH WIND       PRES   REMARKS
CRAWFORDSVL +  CLOUDY    38  38 100 NW14      29.71S FOG
GREENCASTLE +  CLOUDY    37  37 100 N13G20    29.71R FOG
LAFAYETTE      CLOUDY    39  38  96 N10       29.73R FOG
TERRE HAUTE    CLOUDY    42  37  82 N10G20    29.74R

$$

INZ030>032-037>040-046>048-054>057-064-065-231700-
CENTRAL INDIANA

CITY           SKY/WX    TMP DP  RH WIND       PRES   REMARKS
ANDERSON       CLOUDY    45  45 100 N12G17    29.64R FOG
CP ATTERBURY + CLOUDY    45  43  93 NW15      29.65R
COLUMBUS       CLOUDY    45  45 100 NW16G23   29.64R FOG
FISHERS *+     CLOUDY    41  41 100 NW7       29.67
FRANKFORT +    CLOUDY    43  42  95 N16       29.71R FOG
GREENWOOD *+   CLOUDY    45  45 100 N13G20    29.65R
INDIANAPOLIS   CLOUDY    44  42  93 NW13      29.67R FOG
-EAGLE CREEK   CLOUDY    44  41  89 N13       29.66R
KOKOMO +       CLOUDY    42  42 100 NW15      29.68R FOG
MARION +       CLOUDY    43  43 100 N14       29.66R FOG
MT COMFORT *+  CLOUDY    43  43 100 N15       29.65R
SHELBYVILLE    CLOUDY    45  43  93 N21       29.62R FOG
ZIONSVILLE +   CLOUDY    41  40  98 N12G17    29.68R FOG

$$

INZ033-034-041-042-049-050-058-059-231700-
EAST CENTRAL INDIANA

CITY           SKY/WX    TMP DP  RH WIND       PRES   REMARKS
MUNCIE         FOG       46  44  93 N14       29.63R VSB 3/4

$$

INZ060-061-067>069-081>083-085>088-231700-
SOUTHWEST INDIANA

CITY           SKY/WX    TMP DP  RH WIND       PRES   REMARKS
EVANSVILLE     CLOUDY    44  37  76 N15G23    29.73R HAZE
HUNTINGBURG *+ CLOUDY    45  41  87 NW15      29.69R
WASHINGTON +   CLOUDY    43  40  90 NW15G22   29.71R

$$

INZ062-063-066-070>080-084-089>092-231700-
SOUTH CENTRAL AND SOUTHEAST INDIANA

CITY           SKY/WX    TMP DP  RH WIND       PRES   REMARKS
BLOOMINGTON    CLOUDY    43  40  89 NW9       29.66R FOG
MADISON *+     CLOUDY    46  45  93 NW14G21   29.60R
NORTH VERNON + CLOUDY   N/A N/A N/A N16       29.60R FOG
SEYMOUR +      CLOUDY    48  45  87 NW15G21   29.63R

$$





USA.gov is the U.S. government's official web portal to all federal, state and local government web resources and services.